Regional Weather Roundup
Issued by NWS Newport/Morehead, NC

Current Version | Previous Version | Graphics & Text | Print | Product List | Glossary Off
Versions: 1 2 3 4 5 6 7 8 9 10 11 12 13 14 15 16 17 18 19 20 21 22 23 24 25 26 27 28 29 30 31 32 33 34 35 36 37 38 39 40 41 42 43 44 45 46 47 48 49 50

000
ASUS42 KMHX 291913
RWRMHX
WEATHER ROUNDUP FOR EASTERN NORTH CAROLINA
NATIONAL WEATHER SERVICE NEWPORT/MOREHEAD CITY NC
300 PM EDT FRI APR 29 2016

NOTE: "FAIR" INDICATES FEW OR NO CLOUDS BELOW 12,000 FEET
WITH NO SIGNIFICANT WEATHER AND/OR OBSTRUCTIONS TO VISIBILITY

NCZ015>017-031-032-045>047-102-103-292000-
NORTH COAST

CITY           SKY/WX    TMP DP  RH WIND       PRES   REMARKS
EDENTON        CLOUDY    65  60  85 NW8       30.00S
ELIZABETH CITY CLOUDY    64  57  78 N8        29.99R
KITTY HAWK     MOCLDY    64  55  73 N8G17     29.96S
MANTEO         NOT AVBL

$$

NCZ045>047-081-094-103-104-292000-
CENTRAL COAST

CITY           SKY/WX    TMP DP  RH WIND       PRES   REMARKS
FRISCO         SUNNY     70  61  73 N8        29.94R
SWANQUARTER    NOT AVBL

$$

NCZ095-097-098-100-101-292000-
SOUTHERN COAST

CITY           SKY/WX    TMP DP  RH WIND       PRES   REMARKS
BEAUFORT       PTSUNNY   72  62  71 W6        29.95F
CEDAR ISLAND   NOT AVBL
JACKSONVILLE   PTSUNNY   72  60  66 NE8       29.96F
PINEY ISLAND   NOT AVBL
WILMINGTON     MOSUNNY   75  63  66 E12       29.96R


$$

NCZ011>013-027>030-043-044-078>080-089-090>093-098-292000-
COASTAL PLAIN

CITY           SKY/WX    TMP DP  RH WIND       PRES   REMARKS
AHOSKIE        CLOUDY    60  57  89 CALM      30.02F
CLINTON        SUNNY     76  63  63 CALM      29.98F
ELIZABETHTOWN  SUNNY     80  57  45 CALM      29.96S
GOLDSBORO      MOSUNNY   70  63  78 NW6       29.98F
GREENVILLE     CLOUDY    64  61  88 NW5       30.02F
HAVELOCK       PTSUNNY   72  62  71 NW9       29.98R
KENANSVILLE    MOSUNNY   71  58  64 CALM      30.00S
KINSTON        CLOUDY    68  59  73 N6        30.01R
NEW BERN       CLOUDY    69  59  70 N5        29.99S
RICHLANDS      MOSUNNY   72  60  66 NE8       29.98S
ROCKY MOUNT    CLOUDY    66  58  75 NE5       30.01F
WASHINGTON     PTSUNNY   65  59  81 N5        30.00S
WHITEVILLE     MOSUNNY   82  59  45 CALM      29.95F

$$

AMZ130-135-150-152-154-156-158-170-250-252-270-ANZ085-086-088-633-658-670-292000-
MARINE OBSERVATIONS

STATION/POSITION TIME  TEMP    WIND        PRES    WAVE   SWELL
                       AIR SEA DIR/SP/G            HT/PER HT/PER
                 (UTC) (F)     (DEG/KT/KT) (MB)    (FT/S) (FT/S)
CHESAPEAKE LIGHT 1800   53     360/ 15/ 16 1016.2
64 E VA BEACH    1850   54 54  340/ 16/ 19 1013.8    4/ 8   2/ 8
DUCK             1800   56 67  350/ 15/ 16 1014.2
2 E DUCK         1811      59                N/A     4/ 6
OREGON INLET     1800   59 64  360/ 10/ 14 1013.7
13E OREGON INLT  1800      59                N/A     4/ 5   2/ 8
HATTERAS CG      1800   65 69  340/ 12/ 14 1013.2
DIAMOND BUOY     1850   65 75  360/ 14/ 16 1013.1    3/ 4   2/ 8
CAPE LOOKOUT     1900   70     310/  8/ 11 1013.9
BEAUFORT LAB     1800   67 67   20/  6/  8 1013.5
30 SE NEW RVR IN 1825      67                N/A     3/ 4
27 SE WRIGHTSVLE 1808   67 69   60/ 12/ 16 1014.7
5 SE WRIGHTSVLE  1808   67 68   80/ 14/ 17 1015.2
225 S CAPE HAT   1850   72 71  210/ 16/ 17 1013.4    3/ 5   2/11
41 SE CHARLESTON 1850   72 73   40/  8/ 10 1014.2    2/ 9   2/ 9

$$



USA.gov is the U.S. government's official web portal to all federal, state and local government web resources and services.